Dewar Lakes, Nunavut

8:43 PM EDT on August 19, 2017 (GMT -0400)
Dewar Lakes

Weather History for CWUW - September, 2012

Change the Weather History Date:

Saturday, September 1, 2012

  Actual Average Record
Temperature  
Mean Temperature 35 °F -  
Max Temperature 37 °F 30 °F 46 °F (2010)
Min Temperature 33 °F 22 °F -47 °F (1998)
Degree Days  
Heating Degree Days 30    
Moisture  
Dew Point -    
Average Humidity    
Maximum Humidity    
Minimum Humidity    
Precipitation  
Precipitation 0.00 in 0.05 in - ()
Sea Level Pressure  
Sea Level Pressure 29.50 in    
Wind  
Wind Speed 13 mph ()    
Max Wind Speed 23 mph    
Max Gust Speed 23 mph    
Averages and records for this station are not official NWS values.
T = Trace of Precipitation, MM = Missing Value Source: Averaged Metar Reports

Daily Weather History Graph

Daily Weather History Graph

Search for Another Location

Airport or City:

Trip Planner

Search our weather history database for the weather conditions in past years. The results will help you decide how hot, cold, wet, or windy it might be!

Date:

Astronomy

Sep. 01, 2012 Rise Set
Actual Time 5:09 AM EDT 8:16 PM EDT
Civil Twilight 4:01 AM EDT 9:23 PM EDT
Nautical Twilight 2:03 AM EDT 11:15 PM EDT
Astronomical Twilight Sun does not set Sun does not set
Moon 7:12 PM EDT (9/1) 7:18 AM EDT (9/1)
Length of Visible Light 17h 22m
Length of Day
15h 07m
Full, 99% of the Moon is Illuminated
Sep 1
Full
Sep 8
Last Quarter
Sep 15
New
Sep 22
First Quarter
Sep 29
Full

Hourly Weather History & Observations

Time (EDT) Temp. Windchill Dew Point Humidity Pressure Visibility Wind Dir Wind Speed Gust Speed Precip Events Conditions
12:00 AM 35.6 °F 28.6 °F - N/A% 29.49 in - West 9.2 mph - N/A Rain Light Rain
12:03 AM 35.6 °F 29.2 °F - N/A% 29.38 in - West 8.1 mph - N/A Rain Light Rain
12:22 AM 35.6 °F 29.9 °F - N/A% 29.38 in - WNW 6.9 mph - N/A   Clear
12:57 AM 35.6 °F 29.2 °F - N/A% 29.39 in - WNW 8.1 mph - N/A Rain Light Rain
1:00 AM 35.6 °F 28.0 °F - N/A% 29.49 in - WNW 10.4 mph - N/A Rain Light Rain
1:48 AM 35.6 °F 28.0 °F - N/A% 29.39 in - WNW 10.4 mph - N/A   Clear
1:52 AM 35.6 °F 28.0 °F - N/A% 29.39 in - WNW 10.4 mph - N/A Rain Light Rain
2:00 AM 35 °F - - % 29.49 in - WNW 10.4 mph - -  
2:00 AM 35.6 °F 28.0 °F - N/A% 29.49 in - WNW 10.4 mph - N/A Rain Light Rain
2:36 AM 35.6 °F 27.1 °F - N/A% 29.40 in - WNW 12.7 mph - N/A   Clear
2:38 AM 33.8 °F 25.3 °F - N/A% 29.40 in - WNW 11.5 mph - N/A Rain Rain
2:39 AM 33.8 °F 25.3 °F - N/A% 29.40 in - WNW 11.5 mph - N/A Rain Light Rain
2:40 AM 33.8 °F 24.8 °F - N/A% 29.40 in - WNW 12.7 mph - N/A Rain Rain
2:42 AM 33.8 °F 25.3 °F - N/A% 29.40 in - WNW 11.5 mph - N/A Rain Light Rain
3:00 AM 33.8 °F 24.8 °F - N/A% 29.50 in - WNW 12.7 mph - N/A Rain Light Rain
3:06 AM 33.8 °F 24.3 °F - N/A% 29.40 in - WNW 13.8 mph - N/A Rain Light Rain
3:15 AM 33.8 °F 24.8 °F - N/A% 29.40 in - NW 12.7 mph - N/A   Clear
3:19 AM 33.8 °F 24.8 °F - N/A% 29.40 in - WNW 12.7 mph - N/A Rain Light Rain
3:57 AM 33.8 °F 25.3 °F - N/A% 29.41 in - NW 11.5 mph - N/A Rain Rain
3:58 AM 33.8 °F 25.3 °F - N/A% 29.41 in - NW 11.5 mph - N/A Rain Light Rain
4:00 AM 33.8 °F 25.3 °F - N/A% 29.52 in - NW 11.5 mph - N/A Rain Light Rain
4:10 AM 33.8 °F 25.3 °F - N/A% 29.41 in - NW 11.5 mph - N/A   Clear
5:00 AM 34 °F - - % 29.53 in - NW 11.5 mph - -  
5:00 AM 33.8 °F 25.3 °F - N/A% 29.53 in - WNW 11.5 mph - N/A   Clear
6:00 AM 33.8 °F 23.9 °F - N/A% 29.55 in - WNW 15.0 mph - N/A   Clear
6:15 AM 33.8 °F 24.3 °F - N/A% 29.44 in - WNW 13.8 mph - N/A   Clear
6:21 AM 33.8 °F 24.3 °F - N/A% 29.44 in - WNW 13.8 mph - N/A   Clear
7:00 AM 33.8 °F 24.3 °F - N/A% 29.56 in - WNW 13.8 mph - N/A   Clear
8:00 AM 35 °F - - % 29.57 in - WNW 13.8 mph - -  
8:00 AM 35.6 °F 26.6 °F - N/A% 29.57 in - WNW 13.8 mph - N/A   Clear
9:00 AM 35.6 °F 25.9 °F - N/A% 29.59 in - WNW 16.1 mph - N/A   Clear
9:38 AM 35.6 °F 25.9 °F - N/A% 29.48 in - WNW 16.1 mph - N/A   Overcast
9:41 AM 35.6 °F 25.5 °F - N/A% 29.48 in - WNW 17.3 mph - N/A   Overcast
9:48 AM 35.6 °F 25.5 °F - N/A% 29.48 in - WNW 17.3 mph - N/A   Clear
9:59 AM 35.6 °F 25.5 °F - N/A% 29.49 in - WNW 17.3 mph - N/A   Overcast
10:00 AM 35.6 °F 25.5 °F - N/A% 29.59 in - WNW 17.3 mph - N/A   Overcast
10:02 AM 35.6 °F 25.5 °F - N/A% 29.49 in - WNW 17.3 mph - N/A   Overcast
11:00 AM 36 °F - - % 29.60 in - WNW 16.1 mph - -   Overcast
11:00 AM 35.6 °F 26.2 °F - N/A% 29.60 in - WNW 15.0 mph - N/A   Overcast
11:04 AM 35.6 °F 25.9 °F - N/A% 29.49 in - West 16.1 mph - N/A   Overcast
11:20 AM 35.6 °F 26.2 °F - N/A% 29.50 in - WNW 15.0 mph - N/A   Overcast
11:45 AM 37.4 °F 27.8 °F - N/A% 29.50 in - West 17.3 mph - N/A   Overcast
11:48 AM 37.4 °F 27.2 °F - N/A% 29.50 in - WNW 19.6 mph - N/A   Overcast
11:49 AM 35.6 °F 24.5 °F - N/A% 29.50 in - West 20.7 mph - N/A   Overcast
11:51 AM 37.4 °F 27.5 °F - N/A% 29.50 in - West 18.4 mph - N/A   Overcast
11:59 AM 37.4 °F 27.5 °F - N/A% 29.50 in - West 18.4 mph - N/A   Overcast
12:00 PM 35.6 °F 25.2 °F - N/A% 29.61 in - WNW 18.4 mph - N/A   Overcast
12:03 PM 35.6 °F 25.2 °F - N/A% 29.50 in - WNW 18.4 mph - N/A   Mostly Cloudy
1:00 PM 37.4 °F 27.5 °F - N/A% 29.61 in - West 18.4 mph - N/A   Mostly Cloudy
1:02 PM 35.6 °F 25.5 °F - N/A% 29.50 in - West 17.3 mph - N/A   Mostly Cloudy
1:11 PM 35.6 °F 24.5 °F - N/A% 29.51 in - West 20.7 mph - N/A   Overcast
1:16 PM 35.6 °F 24.8 °F - N/A% 29.51 in - West 19.6 mph - N/A   Overcast
1:17 PM 35.6 °F 24.5 °F - N/A% 29.51 in - West 20.7 mph - N/A   Overcast
1:27 PM 35.6 °F 24.5 °F - N/A% 29.51 in - West 20.7 mph - N/A   Overcast
1:29 PM 35.6 °F 24.8 °F - N/A% 29.51 in - West 19.6 mph - N/A   Overcast
1:30 PM 35.6 °F 25.2 °F - N/A% 29.51 in - West 18.4 mph - N/A   Overcast
1:32 PM 35.6 °F 25.5 °F - N/A% 29.51 in - West 17.3 mph 23.0 mph N/A   Overcast
1:39 PM 35.6 °F 24.8 °F - N/A% 29.51 in - West 19.6 mph - N/A   Overcast
1:40 PM 35.6 °F 25.2 °F - N/A% 29.51 in - West 18.4 mph - N/A   Overcast
1:45 PM 35.6 °F 25.2 °F - N/A% 29.51 in - WNW 18.4 mph - N/A   Overcast
1:46 PM 35.6 °F 25.2 °F - N/A% 29.51 in - West 18.4 mph - N/A   Overcast
1:47 PM 35.6 °F 25.2 °F - N/A% 29.51 in - West 18.4 mph - N/A   Overcast
1:53 PM 35.6 °F 25.5 °F - N/A% 29.51 in - West 17.3 mph 23.0 mph N/A   Overcast
1:58 PM 35.6 °F 25.2 °F - N/A% 29.52 in - West 18.4 mph - N/A   Overcast
2:00 PM 35 °F - - % 29.62 in - West 18.4 mph - -   Overcast
2:00 PM 35.6 °F 24.8 °F - N/A% 29.62 in - West 19.6 mph - N/A   Overcast
2:15 PM 35.6 °F 25.9 °F - N/A% 29.52 in - West 16.1 mph - N/A   Overcast
2:40 PM 35.6 °F 25.9 °F - N/A% 29.52 in - West 16.1 mph - N/A   Overcast
2:41 PM 35.6 °F 25.9 °F - N/A% 29.52 in - West 16.1 mph - N/A   Overcast
3:00 PM 37.4 °F 27.8 °F - N/A% 29.62 in - West 17.3 mph - N/A   Overcast
3:07 PM 37.4 °F 28.2 °F - N/A% 29.52 in - West 16.1 mph - N/A   Overcast
3:35 PM 37.4 °F 27.2 °F - N/A% 29.51 in - West 19.6 mph - N/A   Overcast
4:00 PM 37.4 °F 28.9 °F - N/A% 29.62 in - West 13.8 mph - N/A   Overcast
4:05 PM 37.4 °F 27.8 °F - N/A% 29.52 in - West 17.3 mph - N/A   Overcast
4:20 PM 37.4 °F 28.2 °F - N/A% 29.51 in - West 16.1 mph - N/A   Overcast
4:28 PM 37.4 °F 28.5 °F - N/A% 29.51 in - West 15.0 mph - N/A   Overcast
4:31 PM 37.4 °F 28.5 °F - N/A% 29.51 in - West 15.0 mph - N/A   Overcast
4:45 PM 35.6 °F 26.2 °F - N/A% 29.51 in - West 15.0 mph - N/A Rain Light Rain
4:48 PM 35.6 °F 27.1 °F - N/A% 29.51 in - West 12.7 mph - N/A Rain Light Rain
4:53 PM 37.4 °F 29.8 °F - N/A% 29.51 in - West 11.5 mph - N/A Rain Light Rain
4:58 PM 37.4 °F 30.3 °F - N/A% 29.51 in - West 10.4 mph - N/A Rain Light Rain
4:59 PM 37.4 °F 30.3 °F - N/A% 29.51 in - West 10.4 mph - N/A Rain Light Rain
5:00 PM 37 °F - - % 29.62 in - West 11.5 mph - - Rain Light Rain
5:00 PM 37.4 °F 30.3 °F - N/A% 29.62 in - West 10.4 mph - N/A Rain Light Rain
5:04 PM 35.6 °F 27.1 °F - N/A% 29.51 in - WNW 12.7 mph - N/A   Overcast
5:09 PM 35.6 °F 27.5 °F - N/A% 29.51 in - WNW 11.5 mph - N/A   Overcast
5:11 PM 35.6 °F 28.0 °F - N/A% 29.51 in - WNW 10.4 mph - N/A   Overcast
5:19 PM 35.6 °F 27.5 °F - N/A% 29.51 in - West 11.5 mph - N/A   Overcast
5:24 PM 37.4 °F 30.3 °F - N/A% 29.51 in - West 10.4 mph - N/A   Overcast
5:39 PM 37.4 °F 28.5 °F - N/A% 29.50 in - West 15.0 mph - N/A   Overcast
5:44 PM 37.4 °F 27.2 °F - N/A% 29.50 in - WSW 19.6 mph - N/A Rain Light Rain
5:45 PM 35.6 °F 25.2 °F - N/A% 29.50 in - WSW 18.4 mph - N/A Rain Light Rain
5:55 PM 35.6 °F 27.1 °F - N/A% 29.50 in - WSW 12.7 mph - N/A Rain Light Rain
6:00 PM 37.4 °F 28.5 °F - N/A% 29.60 in - WSW 15.0 mph - N/A Rain Light Rain
6:07 PM 35.6 °F 27.5 °F - N/A% 29.50 in - West 11.5 mph - N/A   Overcast
6:11 PM 35.6 °F 27.5 °F - N/A% 29.50 in - West 11.5 mph - N/A Rain Light Rain
6:15 PM 35.6 °F 28.6 °F - N/A% 29.50 in - West 9.2 mph - N/A Rain Light Rain
6:22 PM 35.6 °F 28.6 °F - N/A% 29.49 in - WSW 9.2 mph - N/A Rain Light Rain
6:24 PM 35.6 °F 28.6 °F - N/A% 29.49 in - WSW 9.2 mph - N/A Rain Light Rain
6:25 PM 35.6 °F 28.6 °F - N/A% 29.49 in - WSW 9.2 mph - N/A   Overcast
6:29 PM 35.6 °F 27.5 °F - N/A% 29.49 in - WSW 11.5 mph - N/A   Overcast
6:31 PM 37.4 °F 29.3 °F - N/A% 29.49 in - WSW 12.7 mph - N/A Rain Light Rain
6:32 PM 35.6 °F 27.1 °F - N/A% 29.49 in - West 12.7 mph - N/A Rain Light Rain
6:41 PM 35.6 °F 25.5 °F - N/A% 29.49 in - WSW 17.3 mph - N/A Rain Rain
6:47 PM 35.6 °F 27.1 °F - N/A% 29.49 in - WSW 12.7 mph 18.4 mph N/A Rain Rain
6:48 PM 35.6 °F 27.1 °F - N/A% 29.49 in - WSW 12.7 mph 18.4 mph N/A Rain Rain
6:51 PM 35.6 °F 27.5 °F - N/A% 29.49 in - WSW 11.5 mph - N/A Rain Light Rain
6:52 PM 35.6 °F 27.1 °F - N/A% 29.49 in - WSW 12.7 mph - N/A Rain Light Rain
6:54 PM 35.6 °F 27.5 °F - N/A% 29.49 in - WSW 11.5 mph - N/A Rain Light Rain
6:55 PM 35.6 °F 27.5 °F - N/A% 29.49 in - WSW 11.5 mph - N/A Rain Light Rain
6:58 PM 35.6 °F 27.5 °F - N/A% 29.49 in - WSW 11.5 mph - N/A Rain Light Rain
7:00 PM 35.6 °F 27.5 °F - N/A% 29.60 in - WSW 11.5 mph - N/A   Overcast
7:44 PM 35.6 °F 27.1 °F - N/A% 29.48 in - SW 12.7 mph - N/A   Overcast
7:46 PM 35.6 °F 26.2 °F - N/A% 29.48 in - WSW 15.0 mph - N/A   Overcast
7:53 PM 35.6 °F 27.5 °F - N/A% 29.48 in - SW 11.5 mph - N/A   Unknown
8:00 PM 36 °F - - % 29.58 in - SW 12.7 mph - -   Overcast
8:00 PM 35.6 °F 27.1 °F - N/A% 29.58 in - SW 12.7 mph - N/A   Overcast
8:24 PM 35.6 °F 26.6 °F - N/A% 29.47 in - SSW 13.8 mph - N/A   Overcast
8:27 PM 35.6 °F 26.6 °F - N/A% 29.47 in - SSW 13.8 mph - N/A   Overcast
8:29 PM 35.6 °F 26.6 °F - N/A% 29.47 in - SSW 13.8 mph - N/A   Overcast
9:00 PM 35.6 °F 26.6 °F - N/A% 29.56 in - SSW 13.8 mph - N/A   Clear
9:16 PM 35.6 °F 26.2 °F - N/A% 29.45 in - SSW 15.0 mph - N/A   Clear
9:30 PM 35.6 °F 25.2 °F - N/A% 29.44 in - SSW 18.4 mph - N/A Rain Light Rain
9:44 PM 35.6 °F 25.5 °F - N/A% 29.44 in - SSW 17.3 mph - N/A   Clear
9:49 PM 35.6 °F 26.2 °F - N/A% 29.44 in - SSW 15.0 mph - N/A Rain Rain
9:59 PM 35.6 °F 26.6 °F - N/A% 29.43 in - South 13.8 mph - N/A   Clear
10:00 PM 35.6 °F 26.2 °F - N/A% 29.53 in - South 15.0 mph - N/A Rain Light Rain
10:04 PM 35.6 °F 26.2 °F - N/A% 29.43 in - South 15.0 mph - N/A   Clear
10:11 PM 35.6 °F 25.2 °F - N/A% 29.42 in - SSW 18.4 mph - N/A   Clear
10:30 PM 35.6 °F 25.2 °F - N/A% 29.41 in - South 18.4 mph - N/A Rain Light Rain
11:00 PM 35 °F - - % 29.50 in - SSW 23.0 mph - - Rain Light Rain
11:00 PM 35.6 °F 24.0 °F - N/A% 29.50 in - SSW 23.0 mph - N/A Rain Light Rain
11:12 PM 33.8 °F 21.9 °F - N/A% 29.39 in - SSW 21.9 mph - N/A Rain Rain
11:21 PM 35.6 °F 24.5 °F - N/A% 29.38 in - South 20.7 mph - N/A Rain Light Rain